Regional Weather Roundup
Issued by NWS Bismarck, ND

Home | Current Version | Previous Version | Text Only | Print | Product List | Glossary On
Versions: 1 2 3 4 5 6 7 8 9 10 11 12 13 14 15 16 17 18 19 20 21 22 23 24 25 26 27 28 29 30 31 32 33 34 35 36 37 38 39 40 41 42 43 44 45 46 47 48 49 50
000
ASUS43 KBIS 242202
RWRBIS

NWR BROADCAST TEXT
NATIONAL WEATHER SERVICE BISMARCK ND
500 PM CDT FRI MAR 24 2017

NOTE: "FAIR" INDICATES FEW OR NO CLOUDS BELOW 12,000 FEET WITH NO
SIGNIFICANT WEATHER AND/OR OBSTRUCTIONS TO VISIBILITY.


CITY           SKY/WX    TMP DP  RH WIND       PRES   REMARKS
WILLISTON      FAIR      59  32  36 SE13G22   30.01F
MINOT          FAIR      41  30  65 E13       30.14F
MINOT AFB      FAIR      37  29  74 SE15      30.13F
BISMARCK       FAIR      47  34  60 E12       30.15F
DICKINSON      FAIR      57  33  40 SE10      30.03F
GARRISON         N/A     42  32  67 E13       30.12F
HETTINGER ARPT FAIR      58  34  40 SE9       30.07F
JAMESTOWN      CLOUDY    35  29  78 N10       30.18S
HAZEN          FAIR      50  32  50 E8        30.13F
LINTON           N/A     48  39  71 E9        30.15S
MANDAN         FAIR      45  36  70 E13       30.14F
RUGBY            N/A     32  28  86 E10       30.18F
STANLEY        FAIR      41  37  87 SE14G20   30.11F
TIOGA          FAIR      46  41  81 SE16      30.07F
WATFORD CITY   FAIR      55  37  50 SE16      30.02F
$$

CITY           SKY/WX    TMP DP  RH WIND       PRES   REMARKS
GRAND FORKS    CLOUDY    36  28  73 N9        30.22F
GRAND FORKS AF CLOUDY    34  28  77 NE8       30.22F
DEVILS LAKE    CLOUDY    33  26  75 NE8       30.21S
FARGO          CLOUDY    38  32  79 N17       30.19R
CAVALIER         N/A     34  25  69 N8        30.23F
GRAFTON        CLOUDY    34  30  86 N9        30.25S
GWINNER        CLEAR     43  34  70 MISG      30.16S
LANGDON        CLOUDY    32  27  80 NE7       30.21S
ROLLA          CLOUDY    30  27  86 E7        30.18F
$$

CITY           SKY/WX    TMP DP  RH WIND       PRES   REMARKS
ABERDEEN       FAIR      49  30  48 NE10      30.14F
MOBRIDGE       FAIR      58  31  35 E5        30.09S
BUFFALO          N/A     61  32  33 S7        29.98F
RAPID CITY     FAIR      61  30  31 NE12      30.06F
GLASGOW        FAIR      62  27  26 S20       29.89F
SIDNEY         FAIR      64  24  21 VRB6      29.98F
WOLF POINT     FAIR      67  26  21 SW13G18   29.92F
GLENDIVE       FAIR      62  25  24 SE8       29.97F
MILES CITY     FAIR      65  30  27 SE15G24   29.94F
BAKER          FAIR      60  21  22 S10       30.02F
$$

CITY           SKY/WX    TMP DP  RH WIND       PRES   REMARKS
BILLINGS       FAIR      64  20  18 S14       29.88F
GREAT FALLS    FAIR      64  17  16 S20G33    29.74F
$$





USA.gov is the U.S. government's official web portal to all federal, state and local government web resources and services.